Content
SEND FEEDBACK

Daily
Averages
Monthly
Summary
Italy

BARI, ITALY


Home > Europe > Italy
Elevation: 144 feet     Latitude: 41 08N     Longitude: 016 47E

WEATHER
 
SELECT A DAY
Number of Records: 303,614;   Date Range: 7/1/96 - 12/17/14
 
SHARE

PRINT THIS DATA

[ ← Previous Day ]
WEATHER ALMANAC - FEBRUARY 14, 2013
[ Next Day → ]
[ °C ]   °F
Weather ElementAverageHighLow
Temperature43 °F48.2 °F (5:50 pm)35.6 °F (2:20 am)
Dewpoint41.5 °F48.2 °F (5:50 pm)35.6 °F (12:50 am)
Humidity94.5 %100 % (2:20 am)87 % (9:20 am)
Barometer29.91 in29.95 in (10:50 am)29.86 in (12:50 am)
Wind Speed8.9 mph13.8 mph (6:20 pm)
Weather ElementAverage
Visibility4.8 mi
Wind DirectionWNW (277 °)

Weather ElementTotal
Precipitation---
Heating Degree Days23.1 (Base 65)
Averaged from 44 records on February 14, 2013
WEATHER CONDITIONS BREAKOUT
WIND DIRECTION BREAKOUT
WEATHER BY HOUR - FEBRUARY 14, 2013
[ °C ]   °F
Local TimeTemperatureDewpointHumidityBarometerVisibilityWind DirectionWind SpeedGust SpeedPrecipitationEventsConditions
12:50 AM37.4 °F35.6 °F93 %29.86 in5.0 miSW (230°)4.6 mphPartly Cloudy
1:20 AM37.4 °F35.6 °F93 %29.86 in5.0 miWest (280°)4.6 mphScattered Clouds
1:50 AM37.4 °F35.6 °F93 %29.89 in5.0 miWest (260°)4.6 mphScattered Clouds
2:20 AM35.6 °F35.6 °F100 %29.86 in5.0 miWNW (290°)5.8 mphScattered Clouds
2:50 AM37.4 °F35.6 °F93 %29.86 in5.0 miWNW (290°)8.1 mphScattered Clouds
3:50 AM39.2 °F37.4 °F93 %29.86 in5.0 miNW (310°)6.9 mphScattered Clouds
4:20 AM39.2 °F37.4 °F93 %29.86 in5.0 miWNW (300°)6.9 mphScattered Clouds
4:50 AM39.2 °F37.4 °F93 %29.89 in5.0 miNW (310°)6.9 mphScattered Clouds
5:20 AM41.0 °F39.2 °F93 %29.89 in5.0 miWNW (300°)6.9 mphRainLight Rain
5:50 AM41.0 °F39.2 °F93 %29.89 in5.0 miVariable3.5 mphRain-ThunderstormLight Thunderstorms and Rain
6:20 AM41.0 °F39.2 °F93 %29.89 in5.0 miVariable2.3 mphRain-ThunderstormLight Thunderstorms and Rain
6:50 AM41.0 °F41.0 °F100 %29.92 in3.7 miVariable3.5 mphRain-ThunderstormLight Thunderstorms and Rain
7:20 AM41.0 °F39.2 °F93 %29.89 in1.9 miWest (270°)11.5 mphRain-ThunderstormLight Thunderstorms and Rain
7:50 AM42.8 °F42.8 °F100 %29.89 in3.1 miNW (310°)11.5 mphRainLight Rain
8:20 AM42.8 °F42.8 °F100 %29.92 in4.3 miNW (310°)11.5 mphRainLight Rain
8:50 AM44.6 °F44.6 °F100 %29.92 in4.3 miNW (310°)11.5 mphMostly Cloudy
9:20 AM42.8 °F39.2 °F87 %29.92 in4.3 miNW (310°)11.5 mphMostly Cloudy
10:50 AM44.6 °F44.6 °F100 %29.95 in3.1 miNNW (340°)9.2 mphRainRain
11:20 AM44.6 °F44.6 °F100 %29.95 in3.1 miNorth (350°)5.8 mphRainRain
11:50 AM44.6 °F44.6 °F100 %29.95 in4.3 miWNW (300°)9.2 mphRainLight Rain
12:20 PM46.4 °F46.4 °F100 %29.92 in4.3 miWNW (300°)10.4 mphMostly Cloudy
12:50 PM44.6 °F44.6 °F100 %29.92 in3.1 miNNW (330°)8.1 mphRainLight Rain
1:20 PM44.6 °F42.8 °F93 %29.92 in3.7 miNW (310°)8.1 mphMostly Cloudy
1:50 PM44.6 °F42.8 °F93 %29.92 in3.7 miNW (310°)11.5 mphRainLight Rain
2:20 PM44.6 °F42.8 °F93 %29.92 in3.7 miNW (310°)8.1 mphRainLight Rain
2:50 PM44.6 °F41.0 °F87 %29.92 in6.2 miWNW (300°)10.4 mphMostly Cloudy
3:20 PM44.6 °F44.6 °F100 %29.92 in4.3 miWNW (300°)9.2 mphRainLight Rain
3:50 PM44.6 °F44.6 °F100 %29.92 in2.5 miNW (310°)9.2 mphRainRain
4:20 PM44.6 °F44.6 °F100 %29.92 in2.5 miWest (280°)5.8 mphRainRain
4:50 PM44.6 °F44.6 °F100 %29.92 in3.1 miVariable3.5 mphRainLight Rain
5:20 PM46.4 °F46.4 °F100 %29.92 in5.0 miWest (280°)9.2 mphRainLight Rain
5:50 PM48.2 °F48.2 °F100 %29.92 in6.2 miNNW (340°)10.4 mphMostly Cloudy
6:20 PM48.2 °F46.4 °F93 %29.92 in6.2 miNNW (340°)13.8 mphMostly Cloudy
6:50 PM48.2 °F44.6 °F87 %29.92 in6.2 miNorth (350°)12.7 mphMostly Cloudy
7:20 PM48.2 °F44.6 °F87 %29.92 in6.2 miNNW (340°)13.8 mphMostly Cloudy
7:50 PM46.4 °F42.8 °F87 %29.92 in6.2 miNW (320°)10.4 mphScattered Clouds
8:20 PM48.2 °F44.6 °F87 %29.92 in6.2 miNNW (340°)13.8 mphScattered Clouds
8:50 PM42.8 °F41.0 °F93 %29.95 in6.2 miWNW (300°)10.4 mphPartly Cloudy
9:20 PM42.8 °F41.0 °F93 %29.95 in6.2 miWNW (300°)11.5 mphPartly Cloudy
9:50 PM42.8 °F41.0 °F93 %29.95 in6.2 miWNW (290°)11.5 mphPartly Cloudy
10:20 PM42.8 °F41.0 °F93 %29.95 in6.2 miWNW (300°)11.5 mphPartly Cloudy
10:50 PM42.8 °F41.0 °F93 %29.95 in6.2 miWNW (300°)11.5 mphPartly Cloudy
11:20 PM41.0 °F37.4 °F87 %29.95 in6.2 miWest (270°)9.2 mphPartly Cloudy
11:50 PM41.0 °F37.4 °F87 %29.95 in6.2 miWNW (300°)11.5 mphPartly Cloudy
Hourly data recorded from LIBD, located miles away from Bari, Italy







STORIES FROM OUR PARTNERS